Weather History for KFLG - March, 2012

Change the Weather History Date:

Saturday, March 10, 2012

  Actual Average Record
Temperature  
Mean Temperature 38 °F 36 °F  
Max Temperature 52 °F 49 °F 70 °F (1989)
Min Temperature 24 °F 23 °F -9 °F (1958)
Degree Days  
Heating Degree Days 27 29  
Month to date heating degree days 304 298  
Since 1 July heating degree days 4994 5137  
Cooling Degree Days 0 0  
Month to date cooling degree days 0 0  
Year to date cooling degree days 0 0  
Moisture  
Dew Point 20 °F    
Average Humidity 51    
Maximum Humidity 81    
Minimum Humidity 20    
Precipitation  
Precipitation T in 0.07 in 1.85 in (1912)
Month to date precipitation T 0.76  
Year to date precipitation 1.41 4.97  
Snow  
Snow T in 0.70 in 17.50 in (1969)
Month to date snowfall T 7.5  
Since 1 July snowfall 66.1 80.7  
Snow Depth 0.00 in    
Sea Level Pressure  
Sea Level Pressure 30.03 in    
Wind  
Wind Speed 8 mph (NE)    
Max Wind Speed 20 mph    
Max Gust Speed 26 mph    
Visibility 10 miles    
Events      
T = Trace of Precipitation, MM = Missing Value Source: NWS Daily Summary

Daily Weather History Graph

Daily Weather History Graph

Search for Another Location

Airport or City:

Trip Planner

Search our weather history database for the weather conditions in past years. The results will help you decide how hot, cold, wet, or windy it might be!

Date:

Astronomy

Mar. 10, 2012 Rise Set
Actual Time 6:43 AM MST 6:30 PM MST
Civil Twilight 6:18 AM MST 6:55 PM MST
Nautical Twilight 5:48 AM MST 7:25 PM MST
Astronomical Twilight 5:19 AM MST 7:54 PM MST
Moon 9:37 PM MST (3/10) 7:49 AM MST (3/10)
Length of Visible Light 12h 37m
Length of Day
11h 47m
Waning Gibbous, 92% of the Moon is Illuminated
Mar 10
Waning Gibbous
Mar 14
Last Quarter
Mar 22
New
Mar 30
First Quarter
Apr 6
Full

Hourly Weather History & Observations

Time (MST) Temp. Windchill Dew Point Humidity Pressure Visibility Wind Dir Wind Speed Gust Speed Precip Events Conditions
12:57 AM 27.0 °F 19.5 °F 16.0 °F 63% 30.11 in 10.0 mi NNE 6.9 mph - N/A   Clear
1:57 AM 27.0 °F 20.5 °F 17.1 °F 66% 30.08 in 10.0 mi NNE 5.8 mph - N/A   Clear
2:57 AM 26.1 °F 18.4 °F 17.1 °F 69% 30.07 in 10.0 mi NE 6.9 mph - N/A   Clear
3:57 AM 25.0 °F 17.1 °F 18.0 °F 75% 30.06 in 10.0 mi NE 6.9 mph - N/A   Clear
4:57 AM 26.1 °F 16.8 °F 19.0 °F 75% 30.05 in 10.0 mi ENE 9.2 mph - N/A   Mostly Cloudy
5:57 AM 25.0 °F 14.2 °F 19.0 °F 78% 30.06 in 10.0 mi NE 11.5 mph - N/A   Scattered Clouds
6:57 AM 25.0 °F 14.8 °F 19.9 °F 81% 30.09 in 10.0 mi NE 10.4 mph - N/A   Scattered Clouds
7:04 AM 24.8 °F 15.3 °F 19.4 °F 80% 30.11 in 10.0 mi NE 9.2 mph - N/A   Overcast
7:30 AM 26.6 °F 18.2 °F 21.2 °F 80% 30.11 in 10.0 mi ENE 8.1 mph - N/A   Overcast
7:57 AM 27.0 °F 19.5 °F 21.9 °F 81% 30.12 in 10.0 mi East 6.9 mph - N/A   Scattered Clouds
8:57 AM 34.0 °F 24.6 °F 23.0 °F 64% 30.09 in 10.0 mi ENE 13.8 mph - N/A   Scattered Clouds
9:57 AM 37.0 °F 28.9 °F 24.1 °F 59% 30.08 in 10.0 mi NE 12.7 mph - N/A   Scattered Clouds
10:57 AM 43.0 °F 35.7 °F 24.1 °F 47% 30.03 in 10.0 mi NE 15.0 mph - N/A   Partly Cloudy
11:57 AM 45.0 °F 37.4 °F 23.0 °F 42% 30.02 in 10.0 mi NE 18.4 mph 24.2 mph N/A   Partly Cloudy
12:57 PM 46.0 °F 41.0 °F 21.9 °F 39% 29.99 in 10.0 mi ENE 10.4 mph 26.5 mph N/A   Partly Cloudy
1:57 PM 48.0 °F - 21.0 °F 34% 29.96 in 10.0 mi NE 9.2 mph - N/A   Clear
2:57 PM 46.9 °F - 19.9 °F 34% 29.96 in 10.0 mi Variable 4.6 mph - N/A   Clear
3:57 PM 51.1 °F - 18.0 °F 27% 29.94 in 10.0 mi North 10.4 mph 17.3 mph N/A   Scattered Clouds
4:57 PM 50.0 °F - 10.9 °F 21% 29.93 in 10.0 mi Calm Calm - N/A   Clear
5:57 PM 50.0 °F - 17.1 °F 27% 29.94 in 10.0 mi WSW 3.5 mph - N/A   Clear
6:57 PM 41.0 °F 39.0 °F 21.0 °F 45% 30.00 in 10.0 mi SSE 3.5 mph - N/A   Scattered Clouds
7:57 PM 37.9 °F 32.7 °F 21.0 °F 51% 30.01 in 10.0 mi SW 6.9 mph - N/A   Clear
8:57 PM 36.0 °F 29.6 °F 21.0 °F 55% 30.00 in 10.0 mi SW 8.1 mph - N/A   Clear
9:57 PM 33.1 °F 28.7 °F 19.9 °F 59% 30.01 in 10.0 mi WSW 4.6 mph - N/A   Clear
10:57 PM 30.0 °F 26.5 °F 19.0 °F 64% 30.00 in 10.0 mi West 3.5 mph - N/A   Clear
11:57 PM 28.0 °F - 18.0 °F 66% 29.99 in 10.0 mi Calm Calm - N/A   Clear